Regional Weather Roundup
Issued by NWS San Angelo, TX

Home | Current Version | Previous Version | Text Only | Print | Product List | Glossary On
Versions: 1 2 3 4 5 6 7 8 9 10 11 12 13 14 15 16 17 18 19 20 21 22 23 24 25 26 27 28 29 30 31 32 33 34 35 36 37 38 39 40 41 42 43 44 45 46 47 48 49 50
000
ASUS44 KSJT 221310
RWRSJT
WEST CENTRAL TEXAS REGIONAL WEATHER ROUNDUP
NATIONAL WEATHER SERVICE SAN ANGELO TX
700 AM CST SUN JAN 22 2017

NOTE: "FAIR" INDICATES FEW OR NO CLOUDS BELOW 12,000 FEET WITH NO
SIGNIFICANT WEATHER AND/OR OBSTRUCTIONS TO VISIBILITY.

TXZ049-054-064>066-071>073-076>078-098-099-113-114-127-128-139-140-
154-155-168>170-221400
...LOCATIONS ACROSS WEST CENTRAL TEXAS...

CITY           SKY/WX    TMP DP  RH WIND       PRES   REMARKS
SAN ANGELO     CLEAR     50  27  40 W26G38    29.76R
ABILENE        CLOUDY    49  38  65 NW25G33   29.66R
DYESS AFB      CLOUDY    50  38  64 N20G32    29.68R
JUNCTION       CLEAR     53  25  33 W22G36    29.73R
SWEETWATER     CLOUDY    48  37  65 W21G29    29.75R
BROWNWOOD      CLOUDY    54  37  54 NW26G44   29.61R
COLEMAN        CLOUDY    52  37  58 NW31G45   29.65R
SONORA         CLEAR     50  25  37 W8G22     29.85R
OZONA          FAIR      46  25  42 MISG      29.88R
BRADY          NOT AVBL
$$

TEXAS PANHANDLE/OKLAHOMA PANHANDLE

CITY           SKY/WX    TMP DP  RH WIND       PRES   REMARKS
AMARILLO       CLEAR     35  33  92 NW16      29.79R WCI  25
BORGER         CLEAR     38  32  79 NW12G21   29.79R WCI  30
CANADIAN       CLEAR     40  37  89 N16G25    29.72R WCI  32
DALHART        CLEAR     34  30  85 NW13      29.84R WCI  25
DUMAS          SUNNY     32  30  91 NW12      29.81R WCI  23
GUYMON         NOT AVBL
HEREFORD       SUNNY     35  33  90 NW13      29.84R WCI  27
PAMPA          SUNNY     37  35  91 NW13G18   29.76R WCI  29
PERRYTON       CLEAR     37  33  87 NW16      29.73R WCI  27
$$

SOUTHERN PANHANDLE/SOUTH PLAINS/ROLLING PLAINS

CITY           SKY/WX    TMP DP  RH WIND       PRES   REMARKS
LUBBOCK        PTCLDY    39  31  72 NW17      29.79R WCI  30
SNYDER         CLEAR     45  35  67 NW17G25   29.75R WCI  38
CHILDRESS      PTCLDY    45  39  79 N24G32    29.69R WCI  36
SEMINOLE       SUNNY     40  24  53 NW13      29.89R WCI  33
$$

PERMIAN BASIN

CITY           SKY/WX    TMP DP  RH WIND       PRES   REMARKS
MIDLAND        CLEAR     45  23  42 W18G26    29.86R WCI  37
ODESSA         CLEAR     44  22  41 NW18      29.87R WCI  36
WINK           CLEAR     42  23  46 W17       29.90R WCI  34
$$

FAR WEST/SOUTHWEST MOUNTAINS/TRANS PECOS

CITY           SKY/WX    TMP DP  RH WIND       PRES   REMARKS
ALPINE         SUNNY     41  17  37 W21G38    30.03R WCI  32
DRYDEN           N/A     49  21  33 W16G23    29.91R
EL PASO        CLEAR     39  25  57 W13       30.08R WCI  31
FORT STOCKTON  CLEAR     44  24  45 W23G33    29.93R WCI  35
GUADALUPE PASS CLEAR     31  22  69 W30G44    29.97R WCI  16
MARFA          CLEAR     34  22  61 NW7       30.07R WCI  28
PECOS          NOT AVBL
$$

DALLAS/FORT WORTH METROPLEX

CITY           SKY/WX    TMP DP  RH WIND       PRES   REMARKS
DFW AIRPORT    PTCLDY    53  36  52 W15       29.42R
FTW MEACHAM    PTCLDY    53  37  54 W18       29.44R
DAL-EXECUTIVE  PTCLDY    52  34  50 W10       29.42R
GRAND PRAIRIE  NOT AVBL
ADDISON        CLEAR     52  36  54 W6        29.44R
MESQUITE       SUNNY     48  32  53 SW5       29.43R
LANCASTER      MOSUNNY   50  33  51 W7        29.44R
$$

NORTH CENTRAL TEXAS

CITY           SKY/WX    TMP DP  RH WIND       PRES   REMARKS
SHRMAN/DENISON MOSUNNY   44  36  74 W10       29.43R WCI  38
GAINESVILLE    CLEAR     46  34  61 NW17      29.45R WCI  39
BRIDGEPORT     SUNNY     46  40  79 NW17G26   29.51R WCI  39
DENTON         PTCLDY    47  36  65 W13       29.44R
WAXAHACHIE     MOSUNNY   50  35  56 W8        29.45R
GRANBURY       CLOUDY    54  42  62 W18G31    29.50R
$$

WESTERN NORTH TEXAS

CITY           SKY/WX    TMP DP  RH WIND       PRES   REMARKS
WICHITA FALLS  PTCLDY    44  40  85 NW21G31   29.53R WCI  36
VERNON         PTSUNNY   47  39  73 NW17G26   29.62R
BRECKENRIDGE   CLOUDY    51  42  69 NW18G30   29.59R
COMANCHE       CLOUDY    52  42  68 NW24G37   29.58R
$$

CENTRAL AND SOUTH CENTRAL TEXAS

CITY           SKY/WX    TMP DP  RH WIND       PRES   REMARKS
AUSTIN/BERGSTM PTCLDY    60  27  28 W21G30    29.59R
WACO           PTCLDY    55  33  43 W18G24    29.48R
HILLSBORO      CLOUDY    53  38  56 W8        29.46R
TEMPLE         CLOUDY    57  32  38 W24G31    29.53R
KILLEEN-GRAY   MOCLDY    55  31  38 W16G33    29.54R
FORT HOOD      CLOUDY    56  31  39 W16G30    29.51R
GEORGETOWN     PTCLDY    64  28  25 W20G32    29.57R
LAGO VISTA     FAIR      56  28  33 W21G33    29.59R
SAN MARCOS     CLEAR     57  27  30 W28G35    29.62S
NEW BRAUNFELS  CLEAR     59  27  29 W24G36    29.63R
RANDOLPH AFB   CLEAR     59  23  25 W23G40    29.66R
SAN ANTONIO    CLEAR     59  24  26 W30G41    29.68R
STINSON        CLEAR     61  23  23 W21G33    29.68R
PLEASANTON     NOT AVBL
LA GRANGE      CLEAR     60  31  33 W8G17     29.58R
GIDDINGS       SUNNY     58  29  32 W17G25    29.56F
$$

EAST TEXAS

CITY           SKY/WX    TMP DP  RH WIND       PRES   REMARKS
PARIS          PTCLDY    46  37  71 W7        29.40R
CLARKSVILLE    NOT AVBL
TYLER          CLEAR     51  37  58 SW8       29.42S
LONGVIEW       PTCLDY    53  40  61 W9        29.40S
PALESTINE      MOSUNNY   51  37  58 SW6       29.47S
NACOGDOCHES    CLEAR     52  37  58 SW8       29.45S
$$

TEXAS HILL COUNTRY AND EDWARDS PLATEAU

CITY           SKY/WX    TMP DP  RH WIND       PRES   REMARKS
LLANO          SUNNY     57  30  35 NW28G37   29.66R
HORSESHOE BAY  FAIR      56  28  32 W18G31    29.63R
KERRVILLE      CLEAR     54  26  34 W23G33    29.72R
FREDERICKSBRG  CLEAR     53  24  32 W25G36    29.69R
ROCKSPRINGS    SUNNY     48  27  43 NW24G31   29.81R
HONDO          CLEAR     59  24  26 W31G45    29.74R
UVALDE         SUNNY     57  24  28 W28G35    29.80R
DEL RIO        CLEAR     57  24  28 W22G30    29.84R
$$

SOUTHEAST TEXAS

CITY           SKY/WX    TMP DP  RH WIND       PRES   REMARKS
COLLEGE STN    CLEAR     54  34  46 W12       29.53S
CALDWELL       NOT AVBL
CROCKETT       SUNNY     48  36  61 SW6       29.51S
BRENHAM        CLEAR     58  32  37 SW8       29.56F
HUNTSVILLE     CLEAR     56  32  40 SW9       29.52S
CONROE         CLEAR     55  34  45 SW7       29.54F
HOUSTON BUSH   CLEAR     57  36  45 W12G17    29.56S
HOUSTON HOBBY  PTCLDY    57  37  47 W10       29.58R
PERLAND        CLEAR     59  37  44 W8        29.60R
WHARTON        SUNNY     56  34  43 SW12      29.64R
$$

THE UPPER TEXAS COAST

CITY           SKY/WX    TMP DP  RH WIND       PRES   REMARKS
ORANGE         MOSUNNY   60  44  54 W7        29.56R
PORT ARTHUR    CLEAR     56  42  59 W9        29.54R
GALVESTON      CLEAR     62  41  46 W12G26    29.61R
ANGLETON       CLEAR     60  35  39 W6        29.62R
BAY CITY       SUNNY     52  41  64 SW7       29.65R
$$

TEXAS COASTAL BEND, RIO GRANDE PLAINS DEEP SOUTH TEXAS

CITY           SKY/WX    TMP DP  RH WIND       PRES   REMARKS
VICTORIA       CLEAR     58  34  40 W13       29.67R
BEEVILLE       FAIR      62  29  29 W18G26    29.73R
ROCKPORT       CLEAR     63  31  30 W15G28    29.71R
PORT ARANSAS   SUNNY     63  31  30 NW18      29.74R
PORT LAVACA    SUNNY     55  41  59 W12       29.67S
CORPUS CHRISTI CLEAR     63  27  25 NW25G32   29.75R
KINGSVILLE NAS CLEAR     65  23  20 NW23G32   29.78R
COTULLA        CLEAR     62  20  19 NW20G36   29.79R
LAREDO         CLEAR     53  39  59 NW8       29.84R
BROWNSVILLE    CLEAR     59  38  45 W8        29.81R
PORT ISABEL    PTCLDY    60  40  47 NW10      29.77R
HEBBRONVILLE   SUNNY     54  35  48 NW12      29.82R
MCALLEN        CLEAR     62  40  44 NW7       29.82R
WESLACO        CLEAR     57  41  55 N8        29.80R
FALFURRIAS     SUNNY     56  35  45 W8        29.80R
EDINBURG       SUNNY     59  38  46 NW6       29.81R
$$




USA.gov is the U.S. government's official web portal to all federal, state and local government web resources and services.